Theta_e
352 352 354 355 353 356 356 358 361 364 368 357 355 360 355 361 360 357 361 359 354 352 356 353 351 353 354 357 354 352 351 351 355 351 349 352 349 348 352 350 349 347 349 351 351 353 353 353 353 353 352 352 352 352 351 351 351 351 350 349 350 351 350 352 353 353 353 354 353 352 350 349 349 349 349 350 350 350 352 352 353 353 352 350 350 348 347 349 350 350 349 350 350 351 353 352 352
351 352 353 353 352 358 361 360 365 365 361 353 354 362 360 363 360 358 360 357 355 350 349 348 351 353 349 350 349 354 354 349 351 352 350 350 349 351 352 351 349 346 349 351 351 352 352 353 352 353 352 352 352 351 351 351 349 348 349 350 350 350 351 353 353 353 354 355 354 352 351 350 349 349 349 350 350 350 351 352 353 353 352 350 350 349 347 349 351 351 350 350 350 351 352 352 352
349 353 352 353 354 357 363 363 367 361 354 352 353 367 370 364 359 360 361 357 355 350 348 347 350 350 348 353 351 357 356 346 347 350 350 351 351 353 353 351 348 346 348 350 349 350 351 351 352 353 352 352 351 351 351 349 347 349 351 351 350 351 351 353 352 352 354 355 354 352 351 351 349 348 348 349 349 350 351 351 353 353 352 351 350 349 349 349 351 352 351 350 350 350 349 350 350
348 354 352 355 360 361 369 371 369 361 354 353 351 365 373 364 360 362 361 356 352 348 349 349 352 348 349 355 349 352 353 347 348 349 350 351 352 353 352 350 346 345 348 348 347 349 351 350 351 352 352 351 350 351 350 349 350 352 353 351 350 351 352 352 351 352 354 354 354 353 352 351 350 349 348 349 349 350 350 351 352 353 353 352 350 350 349 348 349 351 352 351 350 349 348 349 350
349 354 351 356 365 366 374 372 369 363 357 358 357 368 370 363 366 363 359 356 350 347 347 347 350 347 347 350 346 352 353 349 349 348 350 352 352 352 352 349 345 345 348 347 346 347 350 350 350 351 351 351 351 350 349 349 351 352 352 351 350 350 351 351 350 352 353 353 354 353 352 351 350 350 350 348 349 349 350 351 352 353 353 352 351 351 350 349 349 350 352 351 351 349 347 348 350
350 353 352 357 362 363 371 366 361 363 363 368 368 372 367 362 370 366 359 356 352 348 346 347 347 346 348 347 346 351 351 351 351 350 351 352 354 353 351 348 344 345 347 348 346 345 348 350 350 350 350 349 350 350 350 349 350 352 352 351 350 349 351 350 349 351 353 354 353 353 352 351 351 351 350 348 348 348 350 351 352 353 352 352 352 352 351 350 349 348 350 351 350 348 346 347 347
350 356 359 362 363 364 372 362 358 365 365 367 368 369 365 363 372 369 358 352 351 347 346 347 345 348 351 348 348 349 349 351 351 350 352 353 354 353 350 346 345 345 345 347 346 345 348 350 349 349 350 349 350 350 349 349 351 353 352 351 350 349 350 350 349 349 352 353 353 352 352 351 351 351 349 348 348 348 349 350 351 352 352 352 352 351 350 349 348 348 349 350 348 346 344 344 344
349 360 365 367 372 372 371 363 360 367 364 360 362 363 362 362 367 368 358 351 351 348 347 347 345 351 351 348 351 350 349 351 351 351 352 353 354 352 350 348 348 346 345 346 345 347 350 350 349 350 351 350 349 350 350 350 350 352 353 352 351 351 351 351 350 349 351 353 352 352 351 350 350 350 349 349 348 349 349 349 350 350 350 350 350 349 348 347 345 343 343 343 343 343 342 342 342
350 361 367 368 374 370 364 364 364 367 365 360 360 360 361 360 361 363 359 355 353 349 349 347 346 352 351 350 352 350 349 351 351 351 352 353 354 353 352 352 350 346 345 344 345 349 350 349 350 351 351 349 349 350 350 350 349 351 353 351 351 352 352 351 350 349 350 351 352 352 351 348 350 350 350 350 349 349 349 349 349 349 348 347 347 347 347 344 339 337 335 335 336 338 340 340 342
359 363 366 370 371 363 358 362 364 366 363 359 360 359 362 363 357 359 358 358 354 350 350 347 347 351 350 351 353 350 349 351 351 351 352 353 353 353 353 353 351 346 344 344 347 349 350 350 350 351 351 350 351 351 351 350 349 351 352 351 350 351 352 352 351 350 351 351 351 350 349 348 349 350 350 350 349 349 349 350 349 349 348 347 347 347 346 343 339 335 331 329 329 331 335 338 342
366 367 364 368 365 358 357 360 365 369 363 360 362 359 363 367 359 357 357 356 352 349 347 347 348 349 348 350 352 350 349 350 352 351 352 352 353 353 352 353 350 344 344 346 348 349 350 350 351 352 351 352 352 352 352 350 350 351 351 350 349 349 351 351 352 352 352 352 350 350 348 347 349 350 350 350 350 349 349 350 349 349 349 349 348 346 345 343 339 335 332 328 326 327 329 334 340
367 372 371 369 363 361 361 362 365 368 368 366 367 363 359 365 363 360 357 354 352 351 348 349 348 347 349 350 351 349 349 350 350 351 352 353 353 353 353 352 348 345 346 347 349 351 352 353 352 352 353 353 352 352 352 350 350 351 351 350 349 349 349 350 351 353 352 352 351 350 349 348 349 349 349 350 350 350 350 351 348 348 349 348 347 346 345 343 339 336 333 331 328 327 327 331 336
370 374 376 368 363 368 364 364 365 366 374 372 368 363 358 365 367 361 358 355 355 354 350 347 345 346 349 349 349 348 349 350 350 352 352 353 353 353 353 351 348 347 349 349 351 353 353 354 353 353 353 353 352 352 351 350 350 351 352 351 350 349 349 349 350 351 352 352 352 351 350 348 349 348 347 349 351 350 350 351 348 346 348 348 346 345 344 342 339 336 335 334 333 332 332 332 334
373 372 375 368 365 371 365 363 365 365 371 371 364 361 359 366 366 360 359 357 357 354 346 344 343 346 348 348 349 348 350 351 352 353 353 353 353 353 353 352 350 348 349 350 352 353 353 354 353 353 353 353 353 352 351 349 349 351 352 352 351 349 349 349 349 350 351 352 352 351 350 350 349 348 347 349 351 351 350 351 350 347 347 347 345 343 342 341 341 339 338 337 337 338 337 336 335
370 373 375 371 367 366 364 365 366 365 368 369 364 361 363 365 361 359 364 361 353 348 345 343 344 347 349 349 349 348 350 351 352 354 353 354 354 354 354 353 351 349 350 352 352 352 352 353 352 353 352 351 352 351 351 349 349 351 352 352 351 349 349 350 349 350 350 350 350 350 351 350 349 349 349 349 350 349 348 349 349 347 346 345 343 342 342 342 342 341 341 340 340 341 340 340 337
365 375 375 368 363 362 365 368 366 368 369 366 361 358 366 371 361 358 367 366 351 344 348 345 343 346 347 346 347 349 350 352 353 354 354 354 354 355 354 354 352 350 351 352 352 352 352 353 352 351 350 350 350 350 350 350 349 350 352 351 350 350 350 350 351 350 349 348 349 350 351 351 349 350 349 347 347 346 345 345 345 344 344 342 341 341 341 342 342 342 341 341 341 341 341 341 340
366 377 375 365 363 364 366 369 366 368 368 363 359 357 366 373 362 358 363 361 349 347 349 344 342 344 343 344 347 350 351 352 354 354 354 354 355 354 354 354 353 352 352 352 352 352 352 352 351 350 349 348 348 349 349 350 350 351 352 351 350 351 350 350 351 350 350 349 349 350 350 349 348 349 347 344 344 344 344 344 344 344 343 342 340 340 341 341 341 341 341 341 340 340 341 342 343
371 379 373 364 368 370 366 368 367 366 365 362 360 356 365 372 362 359 360 354 352 352 348 342 343 343 342 347 350 352 352 353 354 354 353 354 354 354 354 354 354 353 353 353 352 352 351 350 350 348 348 348 347 348 349 350 350 351 351 352 351 351 350 349 350 351 351 351 350 348 347 347 346 346 344 343 343 343 344 344 343 343 342 341 339 339 340 340 340 341 341 340 341 341 342 343 344
371 378 372 367 370 372 368 367 366 367 365 359 360 355 358 366 359 356 357 353 355 352 345 343 345 343 343 349 352 352 352 352 351 351 352 352 353 353 353 353 353 353 352 352 352 352 351 349 349 348 348 348 347 348 349 350 349 350 352 352 351 351 349 348 349 351 352 351 347 345 345 345 344 343 343 343 343 342 342 341 341 341 341 340 338 338 339 339 340 340 340 340 341 343 343 344 345
365 375 377 371 368 371 368 367 364 363 361 357 364 360 355 364 363 359 358 358 357 349 345 345 345 344 344 348 351 351 350 351 350 350 351 351 352 353 353 353 352 352 352 352 351 351 351 349 349 348 348 348 347 347 349 349 348 349 351 352 351 350 348 346 349 349 350 348 346 345 345 344 343 343 342 343 342 340 339 338 339 339 339 339 338 338 338 339 339 339 340 341 342 344 345 345 346
361 373 378 369 365 370 366 364 362 358 359 358 365 364 358 364 367 368 365 359 356 349 345 344 345 344 343 345 348 350 350 350 350 350 350 351 352 352 352 352 352 351 351 351 351 352 350 349 348 348 348 347 346 347 348 348 348 349 350 351 350 348 345 346 348 348 347 346 346 346 346 346 345 344 342 341 340 338 336 336 337 338 338 338 338 338 338 339 339 340 341 342 345 345 346 346 347
365 368 367 364 363 371 366 360 360 358 359 358 363 366 362 366 371 374 367 357 353 349 345 343 343 344 343 343 344 348 350 351 351 351 351 351 352 352 352 352 352 351 350 349 350 351 351 349 348 348 347 347 347 346 347 348 348 349 349 350 348 345 344 345 346 346 345 347 348 348 348 347 346 345 342 339 338 335 335 335 336 337 338 338 338 338 338 339 340 342 344 345 347 348 348 348 347
370 367 360 362 364 369 365 359 361 359 358 360 367 368 367 372 370 368 368 362 356 347 344 343 342 344 343 343 343 344 348 350 351 352 352 351 351 353 353 352 351 351 350 349 348 350 351 350 349 348 347 347 347 346 347 348 347 348 348 347 345 344 344 343 344 345 347 349 348 347 346 344 342 340 339 338 336 334 335 335 336 337 337 338 338 339 340 342 345 347 348 348 349 349 349 348 347
369 370 361 360 363 365 362 360 363 363 362 364 368 367 370 375 362 361 369 362 352 344 343 343 342 343 342 344 343 343 348 350 350 351 351 350 351 352 353 352 351 351 351 350 349 350 350 351 349 348 348 347 347 346 346 347 347 347 347 346 344 343 343 343 345 346 348 348 347 345 343 342 341 341 342 342 341 340 339 338 338 339 339 342 343 344 346 348 349 350 349 350 350 349 348 346 346
364 367 361 357 361 363 360 360 364 367 366 364 365 367 371 372 362 365 373 358 346 343 344 342 342 343 343 344 343 345 348 349 350 350 350 349 351 352 352 351 350 351 351 352 352 350 350 349 348 348 348 347 346 346 346 346 347 347 347 345 344 343 342 344 346 347 347 347 346 346 345 345 345 345 346 346 346 345 343 342 343 345 346 347 348 349 349 349 349 349 349 349 349 348 347 344 345
362 362 360 359 360 360 360 362 365 367 368 365 364 366 370 370 364 369 378 366 346 342 344 342 344 343 344 344 342 346 348 349 350 349 350 349 351 352 351 351 351 352 352 352 352 350 349 347 347 348 348 348 347 346 346 346 346 346 345 344 343 343 343 345 346 347 347 347 347 347 347 347 347 347 347 347 347 346 345 346 347 348 349 349 349 350 350 349 349 349 349 348 348 348 346 343 344
360 358 358 359 360 360 360 361 363 367 368 367 367 368 373 375 365 361 367 360 344 342 345 342 344 344 344 343 343 347 347 349 349 348 350 350 351 351 351 351 351 353 353 353 352 350 348 347 347 349 349 348 347 346 346 346 345 344 343 343 343 344 345 346 346 347 346 347 347 347 348 348 348 347 346 348 349 347 346 347 347 348 348 348 349 349 351 351 350 350 349 348 347 347 346 343 343
357 357 359 359 359 361 360 360 362 367 366 365 370 371 375 376 365 360 360 355 346 344 344 342 344 344 344 345 345 347 347 348 349 348 349 350 350 351 351 351 352 354 353 352 352 350 349 347 348 349 349 348 347 345 344 344 343 342 343 344 345 346 346 346 346 347 347 348 348 347 347 347 348 347 347 349 350 348 347 347 347 348 348 349 349 351 353 352 350 349 348 348 346 345 345 344 343
356 359 363 361 363 363 360 360 360 366 367 363 367 364 369 378 369 365 366 363 353 346 344 344 344 344 345 348 347 348 347 346 347 348 349 350 350 351 351 352 352 353 353 352 351 350 350 348 349 349 348 348 347 344 343 343 342 343 345 346 346 347 347 347 347 348 349 349 348 346 346 347 347 348 348 349 350 348 347 347 348 349 349 350 352 352 353 352 350 348 348 347 345 344 344 344 344
361 362 365 365 367 365 360 360 358 364 365 362 366 358 364 380 373 368 369 367 356 346 346 345 345 346 347 348 349 349 348 346 347 347 348 350 351 351 351 351 351 352 353 352 351 350 350 348 349 349 347 348 348 346 344 343 344 346 347 347 347 347 348 348 348 350 351 349 347 345 345 346 348 350 350 350 349 348 348 348 349 350 351 352 353 352 350 350 349 348 348 347 344 344 344 343 343
367 364 363 367 364 360 363 362 361 366 363 363 367 357 361 375 373 372 371 369 362 350 347 346 346 347 347 349 349 349 349 346 346 347 347 350 351 351 352 352 351 352 353 352 351 350 350 349 350 350 347 348 349 348 347 346 347 347 348 348 348 348 349 348 350 352 351 348 346 345 345 347 349 350 350 350 348 348 348 349 350 351 351 352 352 351 350 350 349 348 348 347 345 344 344 343 342
365 358 352 360 359 358 367 365 363 369 365 366 365 356 364 374 372 373 372 373 373 363 354 349 348 348 348 350 349 349 350 348 346 346 348 350 351 352 352 353 351 351 352 352 351 352 352 350 351 350 348 348 349 349 348 347 348 348 348 348 348 349 349 349 351 352 349 348 348 347 347 349 351 350 349 349 348 349 349 349 351 351 350 350 351 350 350 350 349 349 348 347 346 346 346 343 341
359 357 350 353 358 360 367 365 364 368 366 366 364 362 369 374 373 373 373 374 374 370 361 352 349 348 349 349 349 350 350 350 349 346 348 350 351 352 353 353 353 352 351 352 352 353 353 352 351 350 348 348 349 349 349 348 348 348 348 348 348 348 348 350 351 350 348 349 350 349 349 350 351 350 349 348 349 350 350 351 352 352 350 350 350 350 349 348 348 348 348 347 348 349 347 344 342
351 354 354 354 357 359 362 366 366 365 365 366 366 369 372 372 373 372 372 374 371 370 367 361 355 350 350 350 349 351 351 353 355 349 347 350 351 351 352 353 353 352 351 352 352 353 352 352 351 350 349 349 349 350 349 348 348 348 347 348 348 348 349 349 348 347 348 349 350 350 350 351 351 351 349 349 350 350 350 351 351 350 350 350 350 350 350 349 348 348 349 349 350 349 346 345 343
345 346 351 350 354 357 358 364 367 365 366 368 367 370 370 370 372 370 371 373 368 368 370 371 368 357 351 350 350 351 351 354 355 348 346 350 350 351 352 352 353 352 351 352 352 352 352 351 352 350 349 349 349 349 348 348 348 347 347 348 348 348 349 348 346 347 348 349 350 349 350 352 353 352 351 349 349 350 351 350 350 351 352 352 350 350 351 350 349 349 350 350 349 348 346 346 344
349 349 352 350 351 354 359 365 365 364 365 368 367 367 370 369 370 371 371 371 367 367 369 371 372 361 351 351 352 351 351 352 350 347 347 350 350 351 352 352 352 352 351 352 352 351 352 352 352 350 350 351 350 348 348 348 348 347 347 347 347 347 347 347 347 348 349 350 350 350 351 352 354 353 350 350 350 352 352 351 351 352 354 353 351 350 352 352 351 350 350 350 348 348 348 346 344
348 349 353 354 351 351 361 368 365 363 363 364 364 366 370 369 368 370 369 371 370 369 368 367 370 365 355 352 352 351 352 353 349 347 348 349 350 352 351 351 352 352 351 352 352 351 351 352 352 350 350 350 350 348 348 348 347 347 347 347 346 346 347 348 349 349 350 350 350 352 353 351 353 352 351 351 352 352 353 352 351 352 353 352 351 352 352 352 352 350 349 348 348 348 348 345 344
343 346 351 353 351 354 364 369 366 364 364 364 364 365 368 365 364 368 368 369 369 368 367 367 369 368 361 356 353 351 352 351 349 347 347 349 350 351 351 352 352 351 351 351 351 350 350 351 350 350 350 350 349 348 348 347 346 347 347 347 347 347 348 349 350 350 351 351 351 354 354 351 351 353 353 354 353 353 353 353 353 352 353 352 350 351 351 351 352 351 349 348 348 348 348 348 345
340 345 349 348 354 361 364 368 368 364 363 364 363 363 366 365 364 366 368 368 367 365 365 366 367 367 365 360 355 352 350 350 349 347 347 349 349 350 351 352 351 351 350 349 349 350 349 350 350 349 348 347 347 347 346 346 347 347 346 348 349 349 349 350 350 350 352 353 352 355 355 351 350 353 355 355 354 353 353 354 353 352 353 352 350 350 351 351 351 350 348 349 348 348 349 349 347
338 348 347 347 356 356 354 362 367 365 364 365 364 362 367 371 367 367 367 364 366 367 366 368 367 366 364 357 354 353 350 350 350 348 347 348 349 351 351 351 351 350 348 347 348 349 348 349 349 348 347 345 346 346 344 345 347 347 347 347 348 348 349 350 350 352 353 353 353 355 355 352 350 351 355 356 354 353 353 354 354 352 353 351 349 349 350 351 351 349 348 349 348 347 349 350 350
330 346 350 351 357 356 355 363 368 365 362 365 363 354 361 371 367 367 367 361 362 366 369 370 368 367 364 357 354 354 352 350 350 349 347 348 348 350 351 350 351 349 347 347 347 348 348 348 348 347 346 346 347 345 344 347 347 347 348 347 347 348 348 348 351 353 353 352 354 355 353 352 349 349 353 354 354 353 352 353 353 353 351 350 350 350 350 351 351 349 349 351 348 346 347 349 351
319 333 354 359 360 363 363 365 366 357 352 362 359 343 351 370 366 364 366 362 361 363 368 370 367 366 365 359 355 355 355 352 350 349 347 347 349 350 350 350 350 349 347 347 347 347 348 347 348 347 346 347 347 345 346 349 347 347 348 348 347 348 349 349 351 352 352 352 353 354 352 351 348 349 350 351 353 353 353 352 352 351 350 350 351 350 350 351 351 351 350 350 351 348 346 348 351
313 322 345 354 359 366 364 362 359 352 350 359 359 341 342 361 365 363 365 364 362 362 365 368 365 365 364 361 356 354 354 352 350 349 347 347 348 349 350 350 350 348 347 348 347 347 348 348 348 347 347 348 348 347 347 350 349 348 349 349 349 349 349 349 351 353 353 353 353 354 353 350 349 350 351 352 353 354 354 355 353 351 351 352 351 351 353 352 349 351 351 350 351 349 346 349 353
314 321 340 354 359 358 361 361 355 355 355 352 358 350 340 351 362 362 364 364 363 362 363 365 364 363 362 361 357 355 354 352 351 351 348 347 348 348 350 350 349 348 347 348 347 347 349 349 348 347 347 348 350 349 348 350 350 349 349 350 350 350 349 349 351 354 354 353 354 354 353 351 351 352 353 354 354 353 355 357 354 352 353 352 353 353 354 352 349 351 352 352 351 349 347 351 353
320 322 334 351 356 356 362 359 350 354 350 340 350 352 341 350 363 360 361 363 362 363 362 361 363 362 361 360 357 355 354 352 351 351 349 347 347 349 349 350 349 349 349 348 348 348 349 349 348 347 347 349 350 350 349 350 350 348 348 349 349 349 349 349 350 354 354 354 354 354 353 353 354 355 355 355 355 353 353 354 353 354 354 353 354 354 353 353 351 352 353 352 351 349 350 353 353
323 320 325 334 344 357 359 353 347 339 330 330 342 347 339 347 362 360 358 363 362 361 360 359 361 361 360 359 358 355 354 353 351 351 349 346 346 348 349 350 350 349 349 349 349 349 349 350 349 348 348 348 349 350 350 351 350 347 348 349 349 349 350 350 351 352 353 353 355 355 354 353 354 356 356 355 356 355 352 350 351 354 356 355 354 354 354 354 353 352 354 352 352 353 354 354 353
324 324 325 321 331 347 346 349 345 325 322 334 343 348 339 338 356 364 362 367 365 361 361 360 360 360 359 359 358 355 353 353 352 352 349 346 346 348 349 349 349 349 349 349 350 350 349 350 350 349 349 348 348 350 351 352 351 349 350 350 349 350 351 351 351 351 352 353 354 355 355 354 354 355 356 356 357 357 353 349 350 353 356 357 355 354 354 354 353 353 353 352 353 355 355 353 352
324 328 326 318 323 334 336 341 334 317 325 344 349 351 339 333 350 365 365 366 364 363 365 362 360 361 360 359 358 354 352 352 352 352 351 348 347 347 349 349 349 349 349 349 350 350 350 350 350 349 350 348 348 350 352 352 352 352 352 352 351 351 351 351 351 351 352 353 353 353 354 354 354 355 355 355 357 357 354 351 351 351 355 357 356 354 354 354 353 354 354 353 354 356 355 355 354
324 327 322 316 318 320 324 329 327 321 329 344 350 347 339 341 353 360 364 365 362 366 367 361 360 360 360 359 357 355 351 350 352 352 352 350 348 347 348 349 349 349 349 349 349 351 350 350 350 350 350 349 348 349 352 352 353 353 353 354 352 351 351 351 350 350 351 351 351 353 353 353 354 355 354 355 356 356 354 353 351 350 353 356 356 354 355 355 354 354 355 354 355 356 356 356 356
323 322 319 318 321 319 320 328 328 329 336 346 353 343 336 346 352 353 361 362 362 368 365 360 359 359 359 358 357 355 350 349 350 351 351 351 348 346 347 349 348 348 348 349 350 351 351 351 350 350 350 350 348 349 351 352 353 352 352 354 352 350 350 350 349 350 350 349 350 352 353 352 353 353 353 353 355 355 354 353 351 350 353 355 356 355 354 355 355 355 355 354 355 356 357 357 356
326 329 327 323 327 325 325 331 327 327 338 348 348 337 335 341 348 356 359 353 358 364 362 361 360 358 360 358 357 356 350 349 351 351 351 350 348 346 347 348 348 348 347 348 350 351 352 352 351 350 351 351 350 349 350 351 353 352 352 353 352 350 350 350 350 351 351 351 352 353 353 354 353 352 353 353 353 355 355 354 352 351 353 354 356 356 354 354 356 357 356 355 356 358 358 357 356
327 335 333 324 329 334 332 333 331 331 341 348 343 336 341 348 352 361 359 354 361 362 360 362 360 360 361 359 359 356 352 351 351 352 352 349 348 347 347 347 347 347 347 347 350 351 352 352 352 351 351 351 351 350 350 351 352 352 351 352 352 351 350 350 351 352 353 354 354 355 355 355 354 353 355 354 354 355 355 354 354 353 354 355 356 357 355 355 357 358 358 357 357 357 357 357 357
333 334 331 328 334 342 333 328 333 335 334 338 338 339 346 351 352 359 361 361 365 364 364 364 361 363 363 361 361 359 359 358 352 352 354 351 349 348 347 347 346 346 346 348 351 352 352 352 352 351 350 351 352 350 350 352 353 352 351 351 352 353 351 351 352 352 354 354 355 356 355 354 355 354 354 354 354 355 355 354 355 355 354 355 357 358 357 357 357 357 357 357 356 355 356 357 358
337 331 333 337 336 341 339 333 336 339 332 331 336 339 343 344 347 358 363 363 364 363 364 363 362 364 364 363 364 362 363 362 355 352 355 352 348 348 348 347 346 346 345 347 350 351 352 352 353 352 351 352 352 351 351 353 354 353 352 351 351 353 353 351 353 352 354 356 356 356 355 354 355 355 355 355 354 355 355 355 355 355 355 356 357 359 358 358 357 356 358 358 357 357 357 357 357
336 334 341 341 329 332 338 333 333 336 334 332 335 338 341 343 347 357 361 362 366 366 365 364 361 362 363 363 367 366 360 361 361 356 353 351 347 347 349 348 347 347 345 347 350 351 352 352 353 352 351 351 352 352 353 353 354 354 354 352 351 353 354 353 353 353 355 357 357 357 356 355 355 356 356 355 355 355 355 355 355 355 355 357 358 359 359 358 356 356 357 358 357 357 358 358 358
333 335 338 339 335 336 337 333 332 338 338 334 335 337 342 351 356 359 360 361 365 366 367 368 363 360 362 361 364 368 363 361 366 361 353 350 347 347 349 348 348 348 345 346 349 351 352 352 353 353 352 352 353 354 354 353 354 354 354 354 353 353 354 353 353 354 356 357 358 357 356 355 355 356 356 355 354 355 354 355 354 354 356 357 359 359 359 359 358 358 357 358 358 359 359 359 358
334 334 328 330 335 334 334 335 337 343 340 335 337 337 342 358 363 360 361 360 360 362 364 368 366 361 361 361 360 365 365 361 364 366 359 351 347 347 349 348 348 349 346 346 349 351 352 352 352 353 352 353 353 355 355 354 354 354 354 355 354 354 354 354 354 354 356 356 356 356 355 355 355 356 356 355 354 354 355 354 354 355 357 358 359 359 359 359 359 359 359 358 359 360 359 358 358
338 338 330 332 336 333 333 334 338 346 343 338 339 337 345 364 363 360 366 361 357 361 362 365 364 362 361 360 357 358 361 362 360 363 363 356 349 348 349 348 348 348 347 346 349 351 351 352 352 353 353 353 354 355 355 355 355 354 355 355 355 355 354 354 354 354 355 355 354 354 354 354 355 356 356 356 355 354 355 355 355 354 356 358 358 358 358 359 359 359 358 358 359 359 359 358 358
Wind_Speed
5 3 2 2 2 1 1 0 1 2 2 3 1 1 1 2 1 4 5 4 4 4 2 5 5 4 4 6 9 5 7 3 3 4 2 3 18 24 17 16 20 20 19 18 17 15 14 15 14 15 15 15 14 13 13 12 13 13 13 14 14 13 12 13 13 13 13 13 15 16 17 18 18 18 18 18 17 18 18 17 16 15 14 15 14 13 14 16 18 19 20 20 21 21 20 21 21
3 1 2 3 1 2 1 1 2 2 3 3 2 0 1 1 1 4 5 6 6 5 8 10 8 7 8 8 7 6 8 6 2 5 3 13 23 18 16 17 20 21 20 19 19 19 16 15 15 15 14 14 14 14 13 12 13 14 15 14 14 14 13 13 13 13 13 13 14 16 17 17 17 18 18 18 17 18 17 17 16 15 14 14 14 13 13 14 15 17 19 20 20 20 20 20 21
2 2 3 2 2 2 0 2 3 2 4 4 1 2 1 0 4 4 5 9 10 10 10 10 8 5 6 7 5 5 3 5 5 7 6 18 18 14 19 18 19 20 20 19 19 20 18 16 15 15 14 14 14 14 14 13 14 15 15 14 15 14 14 13 13 13 13 13 14 16 16 16 17 17 18 18 17 17 17 17 16 15 13 13 14 13 13 13 13 14 16 18 19 20 20 21 21
2 1 3 0 1 1 1 3 2 3 3 3 1 2 2 2 5 3 4 9 10 9 9 8 7 4 8 11 6 6 5 2 5 8 7 14 15 19 22 19 19 20 19 18 19 21 20 17 16 14 14 14 14 14 14 14 15 15 15 15 15 15 14 13 13 13 12 14 15 15 16 16 16 17 17 17 17 16 16 17 16 15 14 14 14 13 13 13 13 13 14 15 17 18 20 21 21
2 1 4 0 1 0 1 2 1 3 2 3 2 3 4 3 4 4 3 7 9 9 8 6 6 5 9 9 4 4 6 5 6 10 11 14 20 24 21 19 20 18 18 17 18 21 20 17 15 15 14 14 14 14 14 15 15 14 15 14 15 15 15 14 14 14 13 14 15 15 15 16 16 16 16 16 16 16 16 16 15 15 14 14 14 13 13 12 13 13 12 13 15 17 19 21 20
2 2 4 2 2 1 2 3 3 2 2 3 3 3 5 5 4 4 4 7 8 11 10 8 8 8 7 5 4 5 7 8 8 10 15 20 24 24 21 20 20 18 18 16 17 19 19 16 15 15 15 15 15 14 14 15 15 14 14 14 14 15 15 15 15 15 14 13 14 15 15 16 16 15 15 15 16 17 16 15 15 15 15 15 14 13 12 12 12 12 11 12 13 16 19 19 18
1 2 3 3 1 1 3 3 3 1 1 1 1 3 4 4 3 4 6 7 9 11 11 9 9 9 7 5 5 8 11 11 10 13 21 26 24 23 22 21 20 19 18 16 15 17 17 15 16 16 15 15 15 14 14 15 15 14 14 15 14 14 15 15 16 16 15 14 14 15 14 15 15 15 15 15 17 17 16 15 15 15 15 15 14 14 13 12 11 11 10 10 12 15 18 16 16
2 1 0 2 2 2 3 2 2 1 1 1 2 3 5 4 1 4 5 6 7 7 10 9 10 11 8 6 5 8 15 15 16 20 26 26 24 23 22 21 21 19 18 17 16 17 17 16 16 16 15 15 14 14 14 15 15 14 13 14 14 14 15 15 15 16 15 14 15 15 14 14 14 14 15 15 16 16 16 15 16 15 15 15 15 14 12 12 11 10 9 9 11 14 16 15 15
2 2 0 2 2 2 3 2 2 1 1 3 4 4 6 8 9 3 7 6 7 8 10 8 8 12 8 8 8 7 16 21 23 25 26 24 24 24 22 21 20 20 19 18 17 17 17 17 17 16 15 14 14 14 13 14 14 14 13 14 14 14 15 15 15 16 15 15 15 14 13 14 13 13 14 14 15 15 15 15 16 16 16 15 15 13 11 11 11 10 9 9 10 12 14 14 15
2 2 1 2 2 3 3 2 2 1 2 2 3 3 3 5 10 2 10 8 9 9 9 8 10 14 10 9 7 6 17 25 26 24 24 24 23 22 21 21 20 20 20 19 18 18 17 16 16 16 15 15 15 14 13 13 14 14 13 13 14 14 14 14 15 15 15 15 14 14 13 13 12 12 13 14 14 14 15 15 16 16 15 14 13 12 10 10 10 11 10 10 10 11 13 15 15
3 2 1 2 3 3 2 2 1 2 3 3 2 2 2 2 6 4 10 10 10 13 11 10 12 13 11 8 4 12 24 26 25 24 24 24 23 22 21 20 20 20 20 19 19 18 17 16 16 15 15 15 14 13 13 13 14 13 13 13 14 15 15 14 14 14 15 15 14 14 13 13 11 12 13 13 14 14 14 14 15 15 14 13 11 11 10 9 10 10 10 10 10 11 12 14 15
2 2 1 2 3 2 1 2 1 2 3 4 2 2 3 3 5 3 10 11 10 13 8 6 9 10 11 7 4 15 25 24 24 25 23 24 24 23 21 20 20 20 20 19 19 19 17 16 16 15 15 14 13 13 12 13 14 13 13 13 13 15 15 15 15 13 14 14 14 14 13 12 11 10 12 13 13 13 13 13 14 15 14 12 11 11 10 9 9 10 10 10 10 10 11 12 14
1 1 2 2 1 2 1 1 1 2 3 2 1 3 3 3 4 4 6 11 9 10 6 8 10 8 9 7 7 13 18 22 25 24 23 24 23 21 19 20 20 19 19 20 19 18 18 16 15 15 14 13 12 13 12 13 14 13 13 14 13 14 15 16 16 15 14 14 14 13 12 12 11 10 11 12 12 12 13 12 13 15 14 12 12 11 11 10 9 9 9 9 9 9 9 9 11
2 1 2 1 1 1 2 1 1 1 1 1 2 2 2 1 0 6 1 10 8 9 11 13 12 9 9 8 8 8 12 23 26 25 24 23 21 19 19 19 19 19 20 19 19 18 18 17 16 15 14 14 13 12 12 13 14 13 13 14 14 14 14 15 15 15 14 13 13 12 12 11 11 10 10 11 11 11 12 12 12 13 13 12 12 11 11 10 9 9 9 9 9 8 7 7 8
3 1 2 2 1 1 1 1 1 2 1 2 1 2 2 2 3 5 5 8 6 9 13 12 11 8 9 9 8 9 16 25 26 25 25 23 21 19 20 19 19 20 20 19 18 18 18 18 17 15 15 15 14 14 13 12 14 14 13 14 14 14 14 15 14 14 13 13 13 12 12 11 10 10 10 10 10 10 11 11 11 13 13 12 12 11 10 9 8 8 8 8 8 7 6 6 6
3 2 3 2 1 1 0 1 2 1 1 1 1 2 3 5 1 4 7 6 7 9 10 10 7 7 11 9 11 20 25 26 26 27 26 23 21 20 20 19 19 19 18 18 17 18 18 18 17 16 16 16 16 16 14 13 14 14 14 14 14 15 14 15 14 13 13 13 13 12 11 11 10 10 10 11 10 10 10 11 12 12 12 12 12 11 10 8 8 7 7 6 6 5 5 6 6
1 3 3 2 1 1 1 1 2 1 2 1 1 1 1 5 5 5 3 7 11 8 8 8 6 9 11 11 23 31 29 27 28 28 25 21 20 19 18 18 18 18 17 17 17 17 16 16 16 15 15 15 16 16 16 14 14 14 14 13 14 14 14 14 14 14 13 13 13 12 12 12 12 11 11 12 11 11 10 10 11 10 10 11 11 10 9 8 8 7 6 5 4 4 4 5 6
3 2 2 3 1 2 2 3 2 2 2 3 3 2 2 4 6 3 3 8 9 7 7 9 9 11 14 23 35 34 29 30 30 27 22 18 18 17 16 17 18 17 17 17 16 16 15 15 15 14 15 15 16 17 17 16 16 16 15 14 14 14 14 14 14 14 14 14 13 13 13 13 13 12 12 12 11 11 11 10 10 10 10 10 10 9 8 8 7 6 5 4 4 3 4 5 5
3 1 2 2 3 4 3 4 3 1 3 1 1 4 5 5 3 1 4 6 6 7 8 11 13 13 17 27 32 29 30 30 27 24 20 17 17 16 15 15 17 17 17 17 17 16 15 15 14 14 15 15 16 18 18 17 18 18 17 16 15 15 14 15 16 16 15 14 14 14 13 12 12 12 11 10 9 9 10 10 10 10 9 9 9 8 8 7 7 6 5 4 3 2 2 3 4
2 3 2 3 4 5 4 6 4 1 2 0 2 3 9 6 3 2 3 5 5 9 10 12 16 15 17 22 25 27 28 26 24 22 19 18 17 17 17 16 17 17 18 17 17 16 15 15 14 14 15 16 17 18 18 18 19 19 18 18 16 16 15 16 17 16 15 14 14 13 12 11 11 11 10 9 8 9 9 10 10 9 9 9 9 8 7 7 6 6 5 4 2 2 2 2 3
2 2 3 4 4 4 4 8 6 3 3 2 1 4 9 5 3 2 3 6 6 8 11 14 18 17 17 19 22 25 23 22 22 20 19 17 16 16 16 17 17 17 18 17 16 16 16 14 14 15 15 15 16 18 19 19 19 19 19 18 18 16 16 17 17 16 15 14 13 12 12 11 10 9 9 8 8 8 9 9 9 9 9 8 8 7 6 5 5 4 4 3 2 2 3 3 4
2 2 1 2 3 4 5 9 8 6 6 5 3 5 6 2 2 1 3 6 6 8 11 15 17 16 17 17 19 21 19 18 19 19 18 17 16 15 14 15 16 16 17 17 17 16 16 14 15 15 15 15 16 17 19 19 19 19 19 19 18 17 17 17 17 16 15 13 13 12 12 11 10 9 9 7 7 8 8 7 7 7 6 6 5 4 4 4 3 3 4 4 5 6 6 5 4
3 1 2 3 3 4 4 7 8 6 8 7 5 3 2 3 1 1 1 5 7 10 13 14 14 16 17 16 15 16 14 14 16 18 19 18 17 15 15 16 17 17 18 18 18 17 16 15 16 15 15 15 16 17 18 19 18 18 19 18 18 18 17 17 17 16 15 13 13 12 12 11 10 9 8 7 7 7 7 6 6 5 5 4 3 4 4 4 6 7 7 8 7 7 7 5 4
5 3 2 3 5 5 2 5 5 4 7 7 4 2 1 1 0 2 2 4 10 13 15 14 14 16 16 13 12 12 14 15 16 19 20 21 20 18 17 17 18 18 17 18 17 17 16 16 17 16 15 15 16 18 18 19 19 18 18 18 18 17 17 17 17 16 15 14 14 13 12 11 10 9 8 7 6 6 6 6 6 5 4 3 3 4 5 6 7 8 8 8 7 7 6 4 6
3 3 4 3 4 4 4 6 4 2 4 3 1 2 1 2 0 2 3 3 12 15 14 14 14 14 12 12 11 11 13 15 17 18 19 20 21 18 17 18 18 17 16 17 16 16 16 16 17 17 16 16 17 17 18 19 19 18 18 18 18 17 17 16 16 16 16 15 14 13 12 11 9 8 6 5 4 4 5 5 5 4 3 2 3 4 6 7 7 6 7 7 6 6 3 5 10
1 4 6 5 4 4 5 6 4 2 1 2 2 2 3 3 1 1 3 2 12 15 15 15 14 12 11 11 10 12 13 13 17 18 18 20 21 18 17 18 18 17 16 16 16 16 16 16 17 16 16 16 16 17 19 19 19 19 19 19 17 16 16 15 15 15 15 14 13 12 11 10 9 7 5 4 3 3 4 4 3 3 3 3 4 5 6 6 5 5 5 6 5 6 3 9 14
6 9 8 7 6 4 5 6 5 2 2 5 3 0 4 3 0 1 2 7 14 15 14 14 13 12 12 10 9 13 14 14 18 19 19 19 19 19 18 19 18 17 17 16 16 16 17 18 17 16 16 16 16 18 19 20 20 20 19 18 16 15 15 14 14 13 13 11 9 9 8 8 9 7 5 4 3 3 4 4 3 3 3 2 3 4 4 4 5 4 3 5 7 8 5 10 15
11 11 9 7 7 5 6 6 4 2 3 5 3 0 4 3 1 2 1 7 13 14 15 14 13 11 10 8 9 11 13 16 21 20 19 19 19 20 20 20 20 18 18 17 17 18 18 18 18 17 16 15 16 17 19 20 21 19 18 16 16 15 14 13 12 11 10 9 9 8 8 10 10 8 7 6 5 4 4 4 4 4 3 1 2 2 3 4 4 3 1 5 8 7 7 9 15
9 8 9 4 5 6 5 3 0 0 2 4 3 1 3 3 2 1 4 2 10 13 14 13 11 9 7 8 9 8 11 16 19 19 20 21 21 23 21 21 22 20 19 18 18 19 19 19 19 18 17 16 16 17 19 19 19 18 16 16 16 15 13 12 10 8 8 9 10 10 11 13 12 10 9 6 5 5 5 5 5 3 1 1 1 1 3 3 3 3 2 5 6 7 10 7 14
4 3 7 4 3 4 3 1 2 2 1 3 3 2 3 5 3 1 5 1 10 12 11 11 8 6 7 9 9 7 9 13 15 19 22 23 23 25 23 22 24 23 20 19 19 19 18 19 19 18 18 17 17 17 18 18 18 17 17 17 16 14 12 10 9 10 11 10 11 13 14 14 11 9 7 6 5 6 7 6 4 2 1 0 1 1 2 1 1 2 3 6 7 8 12 7 13
3 2 3 3 3 1 2 1 3 3 0 2 4 3 5 5 5 3 5 4 8 9 8 9 9 7 7 8 9 7 8 11 16 20 23 24 25 25 24 23 24 24 22 21 21 19 18 18 17 18 20 19 18 18 17 18 17 17 17 16 15 13 11 9 11 14 13 11 13 16 15 12 10 9 7 6 7 7 7 5 3 2 2 1 0 1 1 2 2 3 4 7 9 9 12 9 11
2 2 1 2 3 2 2 2 5 3 1 0 3 3 4 6 5 3 3 5 7 5 4 7 8 9 9 8 9 7 6 10 16 21 22 24 25 26 26 24 24 26 25 24 22 19 18 18 17 18 20 19 18 18 18 17 17 17 16 15 14 13 10 10 14 15 12 11 13 15 13 11 11 9 9 8 8 8 7 5 3 3 3 1 1 1 2 3 4 5 7 8 10 10 12 10 8
2 3 2 1 4 2 1 2 6 4 4 2 2 3 2 4 5 2 3 6 7 6 6 7 6 8 10 8 8 8 6 7 11 16 21 23 24 27 27 25 25 26 26 25 23 21 20 19 18 18 20 19 18 17 17 16 16 16 15 15 14 13 12 14 16 13 12 12 12 12 12 11 10 9 10 9 8 7 7 6 4 4 3 1 1 2 3 3 4 5 7 9 10 11 11 10 6
3 1 2 1 4 4 2 2 5 5 5 3 2 3 3 4 4 2 2 5 7 6 5 6 4 6 9 9 7 8 7 6 6 10 19 24 24 27 28 26 25 26 26 25 24 23 22 21 18 20 21 19 18 17 16 16 15 15 15 15 14 14 16 17 15 12 12 13 11 11 11 11 10 9 10 9 8 7 7 7 5 5 3 2 3 4 4 5 5 5 7 9 9 10 10 9 6
4 3 3 2 3 4 5 4 5 8 5 4 4 2 4 5 4 3 1 4 6 5 3 4 3 4 8 9 7 8 8 8 8 11 18 25 26 26 27 26 25 25 26 25 24 24 23 22 19 20 22 20 19 18 17 16 16 15 15 14 14 17 19 16 12 12 12 12 11 12 12 12 11 9 9 9 8 7 8 9 6 4 3 2 3 4 5 6 6 5 7 8 7 8 10 9 6
8 7 5 5 4 2 4 4 5 9 5 4 6 4 5 5 5 5 2 3 5 5 3 2 2 3 7 8 7 9 8 9 12 16 21 26 26 26 26 26 25 26 26 25 25 25 24 23 21 22 23 22 21 20 18 18 17 15 15 14 15 19 19 14 13 12 10 11 11 12 13 13 11 9 9 9 9 8 8 9 7 5 4 3 3 4 5 6 6 6 6 8 7 7 9 8 7
8 6 5 6 5 2 2 2 5 8 5 4 7 5 6 7 6 5 3 4 4 5 4 2 2 3 6 8 8 9 7 6 9 13 22 27 25 27 27 26 26 25 26 27 26 25 25 25 24 24 24 23 22 21 20 20 18 16 15 16 18 20 19 16 15 12 10 11 12 13 13 12 11 10 9 9 10 10 9 8 7 6 5 4 4 4 4 5 6 6 6 6 6 7 9 8 7
7 5 6 3 2 2 0 3 6 6 3 3 5 4 6 6 5 5 4 5 4 5 6 4 4 3 5 7 9 9 9 7 10 10 19 26 24 26 27 27 27 25 26 28 27 27 27 26 25 25 24 23 22 22 22 20 18 16 17 18 20 21 20 19 17 14 12 11 12 13 12 12 12 11 10 10 10 11 9 8 7 7 6 5 5 4 4 5 5 5 5 5 5 7 9 9 7
7 4 6 4 2 2 3 2 6 6 1 1 4 4 4 5 4 4 4 5 3 4 6 5 5 4 4 6 8 10 11 11 11 8 17 23 24 26 26 26 27 24 25 28 28 29 28 27 27 25 24 22 22 25 24 20 17 16 16 18 21 21 20 19 16 14 13 12 13 12 11 12 13 12 11 10 11 12 11 10 9 9 8 6 5 4 3 4 5 5 5 4 4 6 8 10 9
5 6 5 4 6 5 1 2 5 5 2 2 5 3 3 4 4 3 4 3 0 2 4 4 4 5 5 7 8 10 12 13 10 9 14 20 23 25 24 26 26 23 24 27 28 29 28 29 28 26 24 21 20 25 24 18 15 15 14 15 17 18 18 17 15 14 13 12 13 12 11 12 13 13 12 11 12 12 11 11 10 9 8 7 5 4 3 2 3 4 4 4 4 5 7 9 9
2 7 5 5 8 4 2 5 5 3 2 3 6 2 4 4 3 5 4 2 1 2 4 4 4 4 4 5 7 9 11 12 11 10 13 17 20 23 24 26 26 24 24 27 28 29 29 30 29 26 25 22 19 22 21 17 16 16 14 15 15 14 15 16 15 14 13 13 13 13 12 12 13 14 13 12 11 11 11 12 11 10 9 8 7 5 3 2 2 2 2 3 3 4 5 6 7
2 3 5 9 11 6 6 9 6 3 2 3 6 2 4 4 4 7 3 3 5 3 4 6 6 4 4 4 6 7 8 10 12 12 13 16 19 22 24 26 26 25 25 27 28 28 29 30 29 26 26 23 20 21 20 16 17 17 17 17 17 15 15 16 17 16 16 15 15 14 12 12 12 13 13 13 11 11 11 12 11 10 9 9 8 5 4 3 2 1 1 1 1 2 2 4 6
3 4 6 11 11 8 11 11 6 3 3 5 5 3 3 4 4 7 4 4 7 4 5 7 6 6 5 5 6 7 7 8 10 11 12 16 19 21 22 25 27 25 25 27 28 27 28 30 29 27 28 26 22 22 21 18 19 19 19 19 18 17 17 18 19 18 17 16 15 13 12 12 12 13 13 12 10 10 11 11 11 10 9 9 8 6 5 4 3 3 2 2 1 1 1 2 5
3 4 7 13 11 9 13 12 6 4 3 2 4 4 0 3 5 5 6 5 6 6 7 7 6 7 6 6 6 8 9 8 8 10 11 14 19 21 23 25 27 27 26 27 27 27 28 31 28 27 29 28 23 22 23 20 19 21 21 20 19 19 20 19 20 20 18 16 15 14 13 13 13 12 11 11 10 10 11 10 10 10 9 9 8 6 5 5 4 3 4 4 2 2 2 1 3
5 4 5 12 11 11 13 10 5 3 4 2 5 3 1 4 4 1 4 5 6 8 10 9 8 8 8 8 7 7 9 10 9 9 11 14 20 23 25 27 27 28 27 26 27 27 29 30 29 28 30 29 22 22 24 20 19 22 23 21 20 20 21 19 20 21 19 17 16 14 14 14 14 12 11 11 11 10 11 11 11 10 9 9 8 6 5 5 4 5 5 5 4 3 3 2 1
5 0 4 6 7 11 11 8 4 2 3 4 8 6 2 4 3 1 3 3 7 9 10 9 9 9 9 9 8 7 8 9 10 9 11 16 22 24 26 28 28 28 28 27 27 27 29 30 30 30 30 29 24 22 23 21 20 22 22 21 20 20 21 20 20 21 20 19 17 16 15 15 14 14 13 12 11 10 10 11 12 11 10 9 8 6 6 5 5 6 6 5 4 3 3 3 3
2 5 5 4 4 7 6 2 4 3 2 5 8 9 5 2 4 3 3 4 6 7 6 7 8 9 9 9 8 8 8 8 9 9 10 16 22 25 26 27 28 28 28 27 27 28 29 29 30 31 29 29 26 23 23 22 22 22 21 20 20 20 22 22 22 22 21 21 19 18 17 16 15 15 14 13 12 11 10 11 12 13 11 9 8 7 6 6 6 6 6 5 4 4 4 5 5
3 5 4 3 3 2 3 3 2 2 4 6 4 5 5 1 4 4 4 6 4 5 7 9 11 11 10 9 8 9 8 9 10 9 9 12 17 22 25 26 27 28 28 28 27 29 30 30 30 29 29 30 29 26 24 23 23 23 22 20 20 21 22 22 23 23 22 22 21 19 18 17 17 16 15 14 14 13 11 11 12 13 12 10 9 8 7 7 6 7 7 6 6 6 6 6 6
5 4 5 4 2 3 3 3 1 2 4 4 1 5 3 3 5 5 6 7 5 6 7 9 12 12 11 10 10 8 8 10 10 10 9 9 11 17 22 25 26 28 28 28 28 29 31 31 31 29 29 31 31 29 27 25 24 25 23 21 21 22 21 22 22 22 22 22 21 20 19 18 18 18 17 16 16 14 13 12 12 13 13 12 10 10 9 7 7 6 7 7 8 8 7 6 7
4 2 3 4 2 2 1 3 1 1 4 3 3 4 1 3 3 5 7 6 5 6 8 9 10 11 12 11 10 9 9 11 11 10 11 10 11 17 22 24 25 27 29 29 29 31 31 31 32 31 29 31 31 30 29 28 26 27 25 21 20 21 21 22 22 21 21 21 21 20 19 19 20 19 19 18 16 15 14 13 12 13 13 12 11 11 10 8 7 7 6 7 8 8 6 6 7
2 2 5 4 3 4 2 2 1 2 3 3 5 2 2 1 2 4 5 6 4 3 4 6 7 9 9 9 9 9 9 10 11 11 11 12 14 19 22 24 26 27 29 30 29 31 32 31 33 33 30 30 31 30 30 29 28 28 27 23 19 20 22 22 21 20 20 20 20 20 19 19 20 20 18 17 16 16 15 14 13 13 13 13 12 12 11 10 9 9 8 8 8 7 7 7 7
1 2 5 2 3 5 2 2 4 2 1 1 2 0 2 2 2 3 3 4 4 4 3 2 4 4 6 7 8 8 7 8 10 11 11 14 18 21 22 23 26 28 29 30 31 32 33 32 34 35 33 31 31 31 31 30 29 28 28 25 21 20 22 21 20 20 19 20 20 19 19 18 19 19 18 17 16 17 17 15 15 15 14 13 13 13 13 12 11 11 10 10 10 9 8 8 7
0 3 2 3 4 6 3 1 2 3 3 1 1 1 3 2 1 3 4 5 6 5 4 3 4 3 5 6 7 7 6 6 9 11 10 10 13 17 22 25 25 27 29 29 32 35 35 34 35 35 34 32 31 31 31 30 29 28 28 27 23 21 22 22 21 20 20 19 19 19 19 18 17 17 18 18 17 17 18 18 18 18 16 14 14 14 14 13 13 13 11 10 11 11 9 9 7
4 2 4 2 2 4 4 1 3 4 2 2 1 2 2 1 1 4 6 7 6 6 4 1 1 2 5 5 5 6 5 3 5 8 8 10 9 13 17 24 26 27 29 31 34 37 37 36 36 36 34 33 32 32 31 30 30 29 28 28 26 23 23 23 22 21 20 19 19 18 19 18 17 16 16 17 17 18 18 18 18 18 17 15 15 15 14 13 13 14 12 10 10 9 9 8 8
5 4 4 3 3 1 2 2 1 2 0 2 2 0 1 2 1 4 6 5 5 6 5 3 2 1 4 5 5 5 5 4 3 5 7 11 14 15 15 20 26 27 27 30 34 36 36 36 36 36 36 35 33 32 31 31 31 30 28 28 28 25 24 24 22 21 21 20 20 18 18 18 18 17 17 17 17 18 18 19 19 18 17 16 16 16 15 13 12 13 12 11 10 9 9 9 9
4 3 3 3 3 3 1 2 2 2 1 1 1 2 1 3 3 3 4 5 3 4 5 4 4 3 2 2 3 4 5 6 4 5 7 10 16 18 17 17 22 28 28 29 33 35 35 36 36 36 36 35 33 31 31 31 30 30 28 27 28 27 25 25 23 22 22 21 21 19 18 19 18 18 18 18 19 19 19 19 20 18 17 16 16 16 15 13 12 13 13 12 10 9 10 10 9
3 4 3 2 2 2 2 1 1 3 3 2 1 2 4 4 3 3 4 4 1 1 2 4 4 5 5 5 4 4 3 5 5 6 7 10 16 20 19 18 19 25 29 29 32 34 35 35 35 35 35 34 33 31 30 30 30 30 28 27 28 28 26 25 24 23 22 22 21 20 20 20 18 18 18 18 19 20 20 20 20 19 19 18 17 16 16 15 14 14 14 13 11 10 9 8 8
5 4 3 3 2 2 2 1 2 1 3 3 3 1 5 4 2 4 4 2 1 2 2 1 4 4 5 6 5 6 5 3 5 6 5 7 11 17 22 21 17 16 23 30 32 33 34 34 34 35 34 34 34 33 31 31 30 30 29 28 28 28 27 26 25 24 23 22 22 21 20 20 20 19 19 19 20 21 22 22 21 20 19 19 18 16 15 16 17 16 15 14 13 12 11 10 9
Wind_Direction
105 85 60 11 312 232 307 174 66 357 77 84 40 13 117 195 211 158 175 176 159 218 200 89 93 120 123 124 139 93 42 116 168 148 184 166 147 152 158 162 160 157 156 151 151 150 145 143 141 143 142 143 143 144 145 142 137 134 129 124 122 121 118 119 119 117 119 116 115 113 111 112 113 113 111 109 109 111 112 112 110 107 108 109 108 108 111 110 111 116 119 119 118 116 115 116 116
108 143 341 324 235 158 288 50 90 9 59 77 356 174 75 322 220 168 153 123 118 127 106 97 85 86 108 121 131 87 32 2 80 117 102 131 138 149 160 167 164 159 157 155 157 154 150 148 147 147 146 145 145 146 145 141 138 132 126 125 126 127 125 124 123 121 120 117 115 113 112 112 112 113 112 111 111 112 112 111 109 109 109 109 111 111 112 111 110 114 117 117 117 118 118 117 118
147 203 316 303 188 132 294 36 86 60 70 88 350 271 315 285 169 151 129 109 112 117 105 107 99 90 103 87 70 80 55 356 74 100 107 134 138 157 166 169 167 162 160 160 162 158 153 152 154 151 149 149 147 146 143 140 136 130 128 131 132 131 128 126 124 123 121 119 116 114 114 113 112 112 113 113 112 112 112 111 110 110 110 111 113 113 113 112 110 110 113 115 116 117 120 120 118
171 228 318 261 146 44 68 51 98 106 91 122 127 255 276 187 161 149 133 111 114 112 101 103 92 84 94 96 91 81 98 49 87 106 124 149 152 160 166 169 165 162 161 163 164 161 155 155 158 154 153 152 149 147 142 139 136 134 135 135 136 133 128 126 126 124 121 121 119 117 116 115 113 112 113 114 113 112 112 112 112 113 113 113 113 113 113 113 112 110 110 113 116 118 121 121 118
192 335 330 4 143 16 100 76 73 91 133 173 144 254 266 208 169 157 101 88 106 103 97 99 87 94 93 100 120 95 113 112 109 113 125 150 153 158 165 166 163 162 164 164 161 160 156 155 158 157 156 155 154 150 144 140 139 141 139 137 138 135 131 129 129 126 121 121 121 121 119 118 116 114 114 114 115 114 114 114 114 115 115 116 116 115 115 116 115 112 110 112 115 118 122 121 118
203 316 343 42 140 215 93 73 73 86 196 169 140 256 238 194 180 145 78 63 89 94 95 92 99 104 86 69 69 120 145 127 125 127 132 145 152 159 163 162 164 166 169 165 161 160 157 157 160 159 157 157 157 152 146 142 142 143 141 138 138 136 133 131 130 128 124 123 124 124 122 120 118 116 115 115 116 115 115 116 117 118 118 119 120 121 121 120 118 116 112 112 115 120 124 122 119
25 316 348 45 63 44 81 79 100 94 300 135 145 274 252 194 157 107 91 84 81 89 98 96 113 102 83 96 87 125 137 127 132 139 143 147 151 158 159 158 165 169 170 167 163 158 156 159 159 157 155 157 156 153 150 146 144 144 141 138 137 134 130 129 129 129 126 125 126 125 123 122 120 119 117 116 117 117 118 120 121 122 122 123 124 127 127 125 122 119 114 114 118 122 125 123 122
63 26 310 60 43 41 84 78 81 74 12 309 280 318 330 314 347 94 104 103 94 96 101 106 114 91 81 103 96 113 118 124 132 138 144 147 149 154 155 158 165 168 169 169 165 156 155 160 157 156 156 157 155 154 153 150 146 143 140 137 136 132 129 129 128 128 128 127 126 126 127 127 125 122 120 118 118 119 121 123 125 125 125 126 127 127 128 129 126 124 121 122 123 125 128 128 128
77 48 350 64 73 51 75 61 48 37 14 332 319 358 11 337 323 78 102 81 100 100 98 117 109 94 94 95 96 103 110 124 131 138 144 146 151 152 155 163 167 166 169 168 162 156 157 158 157 159 160 158 155 154 155 152 148 144 142 139 136 132 130 131 130 129 128 127 126 127 130 131 130 126 123 122 121 122 122 123 125 125 127 128 127 126 128 131 129 127 124 124 126 129 132 134 135
19 35 80 61 74 61 57 26 49 1 331 339 338 2 34 358 326 24 105 94 102 91 89 105 98 104 113 102 103 117 122 131 133 139 147 148 153 152 157 167 169 165 166 165 157 157 157 157 160 164 163 161 158 156 156 151 146 145 145 142 138 135 133 132 131 131 131 129 129 129 133 136 135 131 129 127 125 124 123 123 124 125 127 129 129 128 131 133 131 128 123 122 124 131 138 140 141
18 349 96 65 45 59 67 40 34 320 316 338 31 23 1 58 335 328 104 103 105 103 107 101 97 109 112 104 105 128 133 138 138 142 148 151 154 153 158 168 171 165 163 160 156 158 158 159 163 165 165 164 160 157 156 150 146 147 148 144 140 138 135 135 133 133 133 133 132 132 136 138 139 138 134 132 128 125 124 126 127 128 129 129 131 131 133 135 133 128 121 119 119 126 136 146 150
41 314 55 74 50 62 98 79 25 317 332 0 9 359 335 25 348 302 116 114 119 114 119 105 115 123 110 108 121 133 138 143 145 145 149 154 156 156 161 166 167 164 161 157 156 159 160 163 164 164 165 162 161 159 156 153 150 150 149 145 140 138 138 138 136 135 135 136 137 136 137 139 142 144 141 137 132 129 126 125 128 131 132 131 133 135 135 137 134 129 122 119 117 120 131 147 154
108 203 75 74 52 84 81 69 24 359 348 15 280 314 358 25 350 296 120 121 129 114 113 119 130 130 112 117 130 138 142 144 145 145 150 154 157 159 160 160 162 163 160 157 158 161 162 164 163 162 161 158 160 158 157 157 152 150 148 143 139 139 141 140 139 139 138 138 139 137 139 142 144 148 146 140 133 130 126 123 126 129 131 133 137 139 139 140 138 133 128 125 120 120 129 142 153
147 176 101 96 26 85 86 71 6 60 311 269 231 309 2 112 43 295 174 122 128 126 130 134 134 119 116 130 135 144 146 144 143 142 146 148 152 152 150 154 160 162 161 161 162 161 163 164 162 161 159 157 158 154 156 157 151 150 148 143 142 142 142 139 139 141 140 140 139 139 142 145 148 148 146 142 135 132 128 125 126 129 133 137 141 143 142 142 140 139 137 135 131 131 136 142 153
156 147 92 90 63 74 75 122 144 121 232 268 305 352 321 226 145 287 242 133 123 139 135 141 141 124 139 153 145 150 149 145 141 139 139 140 143 143 146 153 157 160 162 163 163 163 165 165 164 165 164 161 159 155 154 153 150 150 147 145 145 145 143 139 140 141 142 143 142 144 144 145 147 146 145 144 139 134 130 129 131 134 138 142 146 147 144 143 142 144 145 143 141 141 141 141 147
162 110 84 67 58 96 295 137 113 106 260 263 40 26 343 301 196 251 242 140 131 150 140 152 159 135 150 159 138 141 143 140 135 135 135 133 135 137 142 147 151 157 160 163 166 169 170 167 168 170 170 168 164 158 154 152 150 150 148 148 148 147 145 141 141 140 141 143 144 146 146 147 149 148 145 143 140 133 130 130 131 135 140 145 147 147 145 143 143 145 147 144 141 140 138 140 146
107 67 94 106 70 110 160 152 113 84 328 343 320 126 88 304 272 231 238 117 134 149 141 147 138 128 138 131 131 136 137 133 132 133 131 130 133 134 140 144 147 153 159 167 172 174 173 171 174 174 174 172 167 159 152 151 151 151 151 150 148 146 144 142 142 142 142 141 143 147 150 152 150 147 144 142 142 135 132 131 131 135 142 148 148 145 146 145 147 150 149 146 140 142 145 150 154
84 56 107 126 135 126 155 137 96 72 23 358 338 322 183 244 261 250 66 110 135 126 128 133 117 119 116 118 129 133 134 133 134 133 130 134 137 139 145 149 151 156 161 168 175 178 175 172 175 174 172 167 163 156 151 153 154 153 152 150 149 146 146 147 147 145 143 143 143 147 151 150 145 142 141 141 141 136 136 137 136 140 146 152 149 145 147 149 152 155 156 154 150 150 156 165 170
109 96 96 157 174 140 150 123 92 105 82 40 287 296 253 237 268 353 88 129 137 109 127 129 119 123 115 120 129 132 134 136 136 135 137 144 147 149 152 156 157 160 164 168 175 178 175 171 172 171 166 163 160 156 154 156 158 157 153 152 152 151 153 153 150 148 147 147 146 144 144 141 137 135 135 136 139 140 141 143 144 146 149 153 150 148 151 154 157 163 169 170 170 173 180 190 196
158 119 104 226 179 129 128 107 91 120 81 292 209 270 263 261 327 9 112 128 121 123 141 135 130 138 131 130 135 136 139 140 140 139 143 149 151 155 157 162 161 161 169 174 175 175 175 171 170 169 164 163 161 160 160 160 162 160 156 156 156 156 157 154 152 151 149 148 146 144 141 137 135 134 131 136 145 148 147 147 148 151 153 155 155 156 158 160 165 172 180 185 195 204 216 232 240
160 121 162 206 161 126 127 118 130 163 148 215 265 274 258 265 351 357 116 114 122 142 150 144 141 145 142 140 142 145 146 145 146 143 143 146 151 159 162 164 162 164 172 177 176 173 172 169 167 166 164 165 165 164 164 164 165 163 161 160 158 157 154 151 152 151 146 143 143 143 141 137 138 138 134 141 152 151 149 149 151 154 156 157 161 167 171 178 184 188 204 218 242 274 280 277 277
91 19 86 151 137 127 136 134 154 160 142 179 237 249 251 319 352 321 121 130 146 152 146 143 142 144 147 146 146 148 149 149 148 144 143 147 153 159 162 162 159 164 172 175 175 171 168 167 165 164 165 167 166 164 164 165 165 164 164 162 158 156 152 151 152 149 143 143 145 144 141 136 138 140 140 149 158 152 148 149 152 156 158 163 176 194 202 216 232 249 264 271 282 288 296 293 276
113 7 30 56 65 106 137 137 154 158 145 179 219 223 278 355 308 285 161 164 162 145 138 139 138 142 146 147 149 149 150 150 147 147 149 150 155 161 162 163 162 164 168 170 173 172 170 169 166 165 166 167 164 163 163 164 164 164 165 163 159 155 153 153 152 150 148 148 147 143 135 131 133 136 142 153 155 148 145 147 152 159 166 178 208 244 255 267 284 294 294 295 298 296 302 293 248
115 137 119 65 60 93 118 129 147 162 157 189 205 152 334 356 245 330 349 149 149 138 134 136 136 141 145 151 161 150 146 149 149 153 153 153 157 161 164 167 167 166 165 167 172 176 176 174 170 167 167 167 165 164 164 164 163 164 164 162 160 156 155 153 150 150 149 147 142 135 130 129 133 137 143 145 143 146 148 151 156 163 176 200 247 271 289 304 308 311 312 313 314 314 311 267 206
89 121 137 99 77 97 90 112 119 118 148 193 163 94 293 226 259 321 337 118 138 136 134 135 137 147 152 164 168 146 144 150 149 151 151 152 155 156 163 168 167 168 168 168 173 179 179 175 173 169 166 166 165 165 165 164 164 164 164 162 160 158 156 153 151 150 148 147 145 141 139 140 146 150 146 138 136 148 156 163 170 180 209 247 277 298 313 321 330 334 333 332 331 341 339 192 176
144 109 122 116 103 87 75 94 74 54 88 27 94 58 309 252 269 296 282 172 140 136 138 140 145 156 166 176 166 143 146 150 149 151 147 148 152 152 161 166 166 171 173 171 173 177 175 171 171 168 165 164 163 165 166 164 164 163 162 161 160 159 158 157 154 151 151 151 152 154 154 156 167 174 157 143 143 152 170 187 194 212 240 256 293 318 324 322 343 348 332 338 344 6 45 166 162
119 108 102 98 96 72 60 62 22 357 36 34 86 82 302 276 197 79 157 157 144 140 143 145 152 165 176 180 158 143 151 156 153 148 143 147 152 153 159 165 168 172 172 171 173 174 172 169 169 168 166 165 164 164 164 164 163 162 160 159 160 160 159 159 156 156 160 164 169 175 181 181 184 187 177 171 176 186 195 201 206 224 237 254 298 318 332 330 342 332 304 350 3 19 50 166 163
124 116 87 71 86 72 60 62 359 336 55 22 51 110 309 311 137 87 74 160 149 144 150 153 160 172 179 164 137 143 154 157 153 147 149 155 156 156 161 167 170 171 171 173 174 173 173 172 170 171 168 166 165 163 162 162 161 160 158 158 158 158 159 159 158 164 174 185 194 194 198 194 187 190 194 193 184 183 187 182 191 209 220 246 303 307 325 321 327 332 291 359 8 29 49 162 173
141 122 91 83 87 63 45 77 276 84 87 338 3 84 314 317 177 96 332 214 152 148 155 159 164 166 159 134 128 145 150 150 149 150 157 158 158 159 162 169 170 170 171 175 175 172 175 175 172 173 168 166 166 163 162 163 162 160 159 157 156 158 162 163 164 174 183 193 193 184 184 183 178 183 189 185 176 176 178 175 184 197 213 258 332 300 304 302 312 334 311 347 11 39 44 126 176
140 100 105 135 72 48 12 100 142 90 114 321 26 126 252 282 268 338 354 57 148 153 158 155 152 141 131 131 136 146 144 143 145 151 157 157 159 160 160 167 169 169 170 173 175 172 175 175 172 173 170 168 168 166 166 167 166 165 162 160 161 167 168 171 180 174 169 174 177 173 174 174 172 176 180 178 178 180 181 181 183 184 174 186 351 275 273 308 319 322 322 360 25 39 39 82 174
131 84 97 114 73 99 270 210 152 102 283 332 67 140 232 268 296 351 14 49 133 152 161 150 139 134 136 138 142 145 147 148 150 153 156 156 159 159 158 163 168 169 167 169 172 171 174 176 173 175 173 171 171 170 170 171 173 171 168 167 170 174 173 182 183 168 161 160 165 169 171 172 172 178 185 184 183 183 185 183 167 156 162 162 287 237 190 70 48 19 18 27 36 38 40 66 168
148 109 17 36 86 160 271 229 190 149 164 296 94 155 242 267 285 327 25 52 88 109 128 134 139 146 144 143 145 149 155 150 151 155 156 156 157 159 159 160 166 169 167 167 170 170 176 180 176 177 176 174 173 173 173 175 177 177 174 173 174 177 182 185 177 172 173 167 163 167 169 173 176 184 191 185 182 186 189 181 167 167 171 188 244 175 131 86 65 52 41 37 37 29 32 56 150
258 125 168 149 106 150 269 227 215 170 136 169 172 163 220 267 263 299 32 73 80 76 100 123 157 163 145 148 152 147 156 147 146 154 155 156 158 160 161 162 166 169 168 167 169 171 177 181 181 179 176 175 175 175 177 179 180 181 180 179 180 186 190 185 179 182 185 176 169 169 170 175 179 186 187 181 179 185 187 176 165 167 169 183 140 117 114 90 63 59 52 37 27 21 23 45 117
266 103 137 176 137 151 155 202 210 165 142 175 190 164 193 251 250 243 37 83 93 86 105 121 159 177 149 151 157 147 148 137 143 163 156 155 160 161 161 164 168 170 169 169 172 174 176 178 183 182 177 175 176 177 178 179 178 179 183 188 194 195 188 184 187 191 185 180 176 173 175 178 178 180 181 182 182 186 193 182 164 157 151 119 119 109 95 79 65 61 48 34 22 22 24 35 83
201 184 134 150 167 166 172 182 177 161 150 158 165 191 211 242 247 213 155 96 107 107 117 113 123 174 161 155 155 151 146 141 174 195 166 155 160 161 161 165 169 170 169 170 175 177 176 177 181 184 180 178 178 178 177 180 184 189 195 200 202 192 184 183 187 184 181 184 181 175 176 176 175 173 178 184 184 186 196 189 168 145 128 104 128 120 94 76 73 71 46 38 37 34 31 33 54
188 183 147 153 168 190 185 177 162 153 134 155 178 194 213 228 230 216 207 112 114 118 121 108 101 159 169 159 154 159 152 150 186 197 167 156 160 160 161 165 168 171 172 174 177 179 178 176 180 185 184 184 183 181 183 189 194 198 201 199 193 185 181 181 179 177 179 182 178 174 175 176 174 170 175 180 178 175 179 181 172 144 121 120 143 126 90 68 62 62 48 43 44 40 37 39 42
190 154 143 160 156 184 187 149 160 146 128 194 191 186 207 214 218 223 196 130 132 138 141 176 149 148 171 164 158 157 132 138 215 209 163 157 162 159 160 163 166 170 174 176 178 179 180 179 180 184 186 189 188 186 191 195 191 187 185 183 182 182 183 183 181 184 184 179 177 175 177 181 178 172 176 179 177 172 165 171 176 157 137 138 144 126 86 61 49 52 54 42 37 41 42 38 35
181 140 147 144 118 208 177 110 160 152 126 203 180 184 218 221 226 230 186 163 189 174 161 186 179 154 174 169 157 148 121 148 230 224 161 158 161 159 160 162 165 170 175 179 180 180 180 179 180 183 187 190 192 193 193 189 184 179 173 170 171 175 180 183 184 187 185 185 185 182 182 186 184 177 178 179 178 177 170 169 173 165 158 157 152 135 96 67 56 54 56 45 42 53 50 39 31
152 137 140 141 162 158 25 53 163 163 149 200 168 186 245 264 253 239 203 185 203 194 178 180 171 158 181 179 159 148 144 166 209 202 159 159 158 158 161 163 167 173 176 177 177 178 178 179 182 184 184 182 184 189 186 181 179 176 170 165 165 167 172 179 183 185 187 192 192 190 192 192 189 184 180 179 183 184 181 176 171 171 174 174 165 149 121 81 67 61 52 45 62 71 64 50 40
130 142 138 167 177 151 54 221 177 180 197 143 146 170 288 294 295 278 234 196 10 235 208 203 181 162 181 190 169 158 161 170 189 179 159 159 157 158 161 164 168 173 174 171 171 174 174 176 180 181 181 176 176 181 182 183 183 177 171 169 170 169 172 177 181 184 189 193 194 197 200 198 194 192 186 184 189 191 189 186 182 182 187 190 185 173 151 106 85 77 55 46 68 76 69 59 49
136 149 147 167 173 166 161 162 150 176 224 126 117 72 304 262 244 258 248 197 251 245 203 230 227 175 172 193 177 169 168 167 174 172 161 160 160 161 162 164 168 170 170 170 170 171 171 174 176 180 183 179 178 181 182 187 188 184 177 172 174 174 174 177 178 183 193 198 199 200 201 201 197 194 195 193 195 198 196 193 193 194 197 196 193 190 185 160 128 107 65 50 56 60 58 57 54
341 181 176 164 166 164 136 132 117 117 250 213 139 93 291 261 230 238 242 206 222 206 183 215 231 198 172 188 183 179 178 170 172 170 163 163 162 162 162 164 167 168 169 172 172 171 172 174 176 180 185 182 180 183 186 190 192 190 183 176 176 174 173 179 182 189 198 203 202 199 197 198 195 193 198 197 196 200 198 195 198 201 201 197 192 195 203 197 185 197 179 61 34 37 31 44 51
322 252 167 155 160 150 139 135 123 144 221 223 165 133 278 293 269 233 198 205 225 215 202 211 220 211 183 184 187 181 185 177 173 170 163 164 163 164 164 165 168 169 169 172 172 173 174 174 176 181 183 181 181 186 192 196 194 193 188 184 184 182 181 185 190 195 200 203 203 202 199 196 193 192 195 198 201 203 199 195 197 199 196 193 192 196 207 207 202 211 216 228 263 338 358 40 49
258 270 134 150 162 145 144 146 158 191 171 171 177 139 69 292 278 233 167 182 233 234 229 220 211 214 196 187 189 181 184 181 176 172 166 167 167 167 168 168 170 171 171 171 172 175 176 175 178 181 181 182 185 191 196 198 196 194 189 187 189 190 192 192 194 198 201 203 204 206 203 197 196 198 200 207 213 210 203 200 200 200 196 195 198 201 207 211 208 214 221 228 251 301 323 16 43
246 276 126 155 165 149 150 161 187 186 109 141 215 160 111 266 280 331 138 174 230 233 228 221 207 210 202 191 189 184 184 181 181 178 170 171 171 170 170 170 171 173 174 175 174 176 177 177 179 180 182 186 190 192 194 195 196 193 189 188 189 190 195 197 195 198 203 204 204 205 203 200 204 210 213 216 220 218 213 212 213 211 203 202 209 208 208 218 222 219 222 234 257 288 295 295 347
233 150 99 128 145 151 156 169 172 97 97 202 218 180 170 272 278 84 122 192 231 227 226 221 209 207 204 196 190 186 183 181 185 182 172 173 174 172 170 171 173 174 177 178 178 178 178 179 180 181 184 189 191 191 192 192 191 190 189 190 191 191 195 198 197 200 204 204 205 205 205 207 212 215 218 219 222 224 221 222 223 217 207 208 217 217 216 231 238 227 228 240 252 268 277 275 284
169 73 62 55 94 144 151 166 132 108 257 241 216 187 165 288 276 202 169 210 217 206 211 214 209 208 206 200 190 185 183 182 186 184 174 172 173 172 170 171 173 175 178 180 181 181 180 180 181 183 187 191 191 190 192 191 189 190 189 190 194 194 196 199 199 202 203 204 207 208 209 213 215 218 221 223 224 227 225 225 224 219 212 213 217 217 220 235 241 231 230 240 249 263 275 278 276
85 69 63 38 359 64 55 352 64 128 258 277 247 178 139 183 266 261 243 241 219 188 197 200 199 203 204 199 191 186 182 181 185 185 178 170 170 172 171 172 174 175 178 180 183 184 184 184 184 186 189 191 192 192 193 194 192 191 190 192 196 197 200 202 201 203 204 205 207 207 209 214 217 220 223 226 227 228 227 222 223 222 218 217 215 217 228 235 234 231 236 243 250 260 273 284 282
51 63 68 65 354 359 11 313 244 181 246 276 40 109 109 232 242 275 276 254 222 198 205 203 196 194 196 196 190 184 182 182 184 182 181 175 169 172 174 174 175 177 178 181 183 184 185 187 188 190 191 191 193 195 196 198 197 195 194 197 201 203 206 205 202 203 204 204 205 205 208 214 218 220 220 224 228 230 229 224 223 222 218 217 216 222 230 232 229 232 245 251 247 253 267 281 282
52 89 103 101 92 62 322 287 315 281 258 295 23 81 65 285 266 297 302 280 243 215 210 203 194 190 191 194 187 180 181 182 182 182 181 182 176 173 176 177 178 180 181 182 183 183 184 187 189 191 193 193 194 197 198 201 202 200 199 201 205 207 207 203 199 200 201 203 206 208 210 214 217 219 219 223 226 229 230 225 222 221 219 217 218 224 228 232 235 233 239 245 241 245 259 273 278
59 125 123 123 130 138 199 220 159 239 252 311 352 36 164 211 264 294 308 304 306 295 241 198 187 189 186 188 187 181 180 179 181 183 181 185 183 175 176 179 180 182 184 182 183 183 184 187 189 191 194 194 196 198 199 202 204 203 203 204 205 204 202 200 200 202 203 203 206 209 212 213 216 219 221 225 227 228 229 224 221 222 221 220 221 226 228 229 233 230 232 237 235 241 252 263 273
324 80 88 99 165 143 147 186 181 187 157 304 331 250 200 196 239 306 335 329 342 0 358 111 148 166 163 175 190 186 181 178 179 181 184 188 187 180 176 180 182 183 184 183 182 183 184 187 189 192 194 195 196 198 200 203 205 205 206 206 204 202 202 203 204 205 206 207 207 210 213 215 218 221 223 227 231 232 231 227 227 226 224 224 225 228 228 227 229 231 236 241 238 241 250 258 273
316 54 105 213 178 130 115 254 301 53 93 244 214 170 303 334 335 337 10 2 353 3 15 94 124 130 153 179 194 185 173 172 177 182 181 178 187 190 180 178 184 184 184 184 183 185 186 188 190 191 194 196 197 199 201 203 205 206 208 208 207 205 206 207 208 207 210 212 214 217 219 221 224 227 226 227 232 235 234 235 236 231 227 228 230 231 231 232 233 234 238 247 246 241 247 255 263
116 121 197 208 61 77 96 117 350 36 98 270 259 173 264 350 312 330 11 12 346 343 350 1 125 151 171 188 200 183 147 128 178 177 155 146 185 220 197 179 182 186 186 185 184 187 188 189 190 191 192 195 198 201 202 203 204 206 209 210 209 210 210 211 213 214 213 214 218 222 222 224 227 230 230 229 231 235 237 239 237 230 228 231 233 234 237 238 237 233 234 247 250 239 243 254 255
108 155 171 109 78 15 38 92 68 47 62 294 342 174 228 173 241 324 350 348 334 341 354 3 345 245 196 195 207 193 137 110 165 171 149 154 183 218 219 191 183 184 189 187 185 187 188 189 191 192 193 196 198 201 203 204 205 205 209 211 211 213 214 214 216 216 214 215 221 224 224 225 229 233 236 233 231 235 240 238 232 229 231 232 232 234 238 239 237 233 236 247 249 240 248 262 265
48 67 59 75 122 156 117 100 143 136 155 269 328 350 282 225 238 285 307 314 331 346 351 353 346 339 322 262 236 225 168 146 165 178 174 172 181 200 220 212 189 183 188 188 185 186 188 190 191 193 195 195 197 200 202 204 206 205 208 211 213 216 216 217 219 218 216 218 221 225 227 229 233 236 236 234 233 236 239 234 228 228 231 230 232 237 237 237 237 236 238 245 249 250 256 264 268
70 56 47 60 74 104 115 61 85 124 133 177 200 300 270 245 223 225 272 304 308 305 336 328 332 353 354 347 332 301 241 172 173 180 178 180 184 189 203 218 207 191 187 185 185 187 188 190 192 192 194 194 195 199 201 203 206 206 208 211 214 217 217 218 221 221 221 221 222 225 228 231 235 236 233 233 233 233 234 231 227 228 228 227 230 233 234 235 237 238 239 242 246 247 250 254 257
137 134 151 153 121 107 104 19 328 96 135 163 156 222 266 254 205 214 229 241 228 169 138 313 324 343 344 341 336 319 304 247 194 183 177 177 180 177 182 200 216 205 189 183 184 188 188 190 193 193 193 194 195 197 200 203 206 206 209 212 214 217 219 220 221 222 224 225 226 226 225 228 232 232 233 235 234 231 229 228 229 229 229 228 230 232 235 236 235 236 239 240 240 242 248 257 260